Volver al catálogo

KUIPER-00517

ActivoComunicacionesVLEO
NORAD 69600·PAYLOAD·🇺🇸 United States

Lanzado Jun 17, 2026 desde Guiana Space Centre

Loading…

Próximos Pases (próximas 24 horas)

TLE

ActualizadoSource: CelesTrak SupGP

Época: Sep 14, 2026, 21:10 UTC

1 69600C 26140J   26257.88243056 -.01026300  00000+0 -30265-1 0  2579
2 69600  51.8778 324.8388 0009225 150.0110 244.9247 15.35401603    12

Sigue KUIPER-00517 en tiempo real con AllMySat

Download on the App Store